Total_Precipitation_Accumulation
0.38 0.30 0.38 0.42 0.36 0.38 0.53 0.51 0.40 0.17 0.11 0.10 0.09 0.10 0.08 0.07 0.06 0.06 0.07 0.08 0.08 0.10 0.13 0.19 0.27 0.35 0.47 0.50 0.45 0.43 0.48 0.57 0.68 0.72 0.75 0.78 0.87 0.98 1.03 1.08 1.12 1.10 1.12 1.09
0.39 0.24 0.30 0.32 0.25 0.27 0.30 0.27 0.22 0.13 0.10 0.07 0.07 0.07 0.07 0.07 0.07 0.07 0.07 0.07 0.07 0.09 0.10 0.15 0.27 0.38 0.47 0.53 0.54 0.54 0.62 0.68 0.74 0.80 0.80 0.81 0.86 0.99 1.07 1.11 1.18 1.20 1.16 1.13
0.56 0.31 0.48 0.47 0.23 0.21 0.22 0.19 0.19 0.17 0.11 0.07 0.07 0.08 0.08 0.09 0.10 0.09 0.08 0.08 0.08 0.09 0.10 0.15 0.31 0.44 0.46 0.53 0.57 0.63 0.69 0.71 0.70 0.74 0.80 0.78 0.78 0.89 1.01 1.03 1.00 1.02 1.03 1.02
0.77 0.58 0.84 0.37 0.16 0.14 0.17 0.18 0.20 0.19 0.14 0.10 0.09 0.08 0.09 0.10 0.10 0.09 0.10 0.10 0.11 0.11 0.12 0.15 0.26 0.33 0.34 0.43 0.52 0.57 0.61 0.68 0.70 0.69 0.74 0.79 0.77 0.74 0.76 0.83 0.90 0.87 0.81 0.79
1.01 0.76 0.44 0.17 0.14 0.18 0.21 0.24 0.24 0.22 0.18 0.13 0.10 0.08 0.09 0.10 0.09 0.08 0.09 0.09 0.10 0.11 0.13 0.15 0.19 0.24 0.27 0.32 0.40 0.46 0.50 0.54 0.59 0.61 0.64 0.68 0.73 0.69 0.64 0.65 0.71 0.75 0.74 0.69
1.14 0.84 0.39 0.22 0.15 0.15 0.18 0.29 0.24 0.20 0.19 0.17 0.19 0.32 0.23 0.15 0.10 0.09 0.06 0.05 0.06 0.07 0.08 0.11 0.15 0.20 0.24 0.28 0.29 0.34 0.37 0.38 0.39 0.42 0.47 0.48 0.50 0.53 0.52 0.55 0.58 0.60 0.65 0.67
0.98 0.74 0.29 0.15 0.12 0.15 0.34 0.43 0.28 0.23 0.21 0.22 0.30 0.39 0.26 0.15 0.12 0.09 0.06 0.05 0.04 0.05 0.08 0.11 0.15 0.18 0.20 0.24 0.23 0.27 0.28 0.25 0.25 0.28 0.31 0.33 0.36 0.40 0.42 0.44 0.49 0.54 0.57 0.61
0.74 0.84 0.40 0.16 0.17 0.32 0.45 0.30 0.24 0.23 0.21 0.23 0.21 0.16 0.13 0.11 0.10 0.08 0.07 0.06 0.06 0.07 0.08 0.11 0.13 0.14 0.16 0.19 0.20 0.22 0.24 0.21 0.21 0.23 0.28 0.31 0.32 0.35 0.38 0.41 0.47 0.49 0.53 0.59
0.55 0.45 0.25 0.21 0.25 0.25 0.23 0.21 0.19 0.21 0.19 0.21 0.19 0.14 0.12 0.10 0.09 0.08 0.07 0.08 0.08 0.10 0.10 0.09 0.09 0.10 0.13 0.14 0.16 0.18 0.21 0.20 0.20 0.22 0.26 0.32 0.37 0.39 0.41 0.42 0.47 0.51 0.53 0.57
0.31 0.21 0.19 0.18 0.18 0.17 0.14 0.15 0.14 0.15 0.18 0.20 0.18 0.14 0.11 0.08 0.07 0.07 0.06 0.07 0.10 0.10 0.09 0.09 0.09 0.09 0.10 0.10 0.13 0.17 0.21 0.23 0.23 0.23 0.27 0.31 0.36 0.40 0.44 0.50 0.57 0.61 0.60 0.59
0.21 0.13 0.13 0.14 0.13 0.13 0.11 0.09 0.08 0.07 0.09 0.12 0.13 0.11 0.10 0.09 0.08 0.08 0.09 0.09 0.09 0.09 0.09 0.08 0.09 0.10 0.09 0.09 0.12 0.16 0.19 0.23 0.27 0.27 0.29 0.31 0.32 0.36 0.42 0.47 0.64 0.81 0.72 0.69
0.18 0.11 0.11 0.10 0.09 0.09 0.10 0.09 0.10 0.10 0.07 0.06 0.08 0.09 0.09 0.10 0.10 0.11 0.11 0.11 0.10 0.08 0.07 0.06 0.07 0.08 0.08 0.08 0.10 0.14 0.19 0.22 0.27 0.30 0.32 0.32 0.34 0.37 0.38 0.40 0.47 0.51 0.55 0.65
0.09 0.08 0.07 0.07 0.06 0.07 0.09 0.10 0.11 0.10 0.09 0.07 0.07 0.07 0.08 0.09 0.10 0.10 0.11 0.10 0.09 0.07 0.06 0.06 0.06 0.07 0.09 0.09 0.10 0.14 0.20 0.24 0.28 0.29 0.32 0.36 0.39 0.43 0.41 0.38 0.39 0.40 0.43 0.51
0.06 0.07 0.09 0.07 0.07 0.07 0.09 0.09 0.09 0.09 0.08 0.07 0.06 0.06 0.07 0.07 0.08 0.09 0.09 0.09 0.07 0.05 0.05 0.06 0.07 0.07 0.09 0.10 0.11 0.14 0.20 0.27 0.32 0.31 0.32 0.36 0.39 0.42 0.45 0.47 0.46 0.41 0.41 0.48
0.06 0.07 0.08 0.07 0.07 0.07 0.07 0.07 0.07 0.07 0.06 0.04 0.04 0.05 0.07 0.08 0.09 0.09 0.09 0.07 0.05 0.05 0.05 0.05 0.07 0.07 0.08 0.10 0.13 0.16 0.21 0.28 0.35 0.37 0.37 0.39 0.39 0.40 0.43 0.43 0.44 0.42 0.43 0.52
0.08 0.08 0.07 0.07 0.06 0.06 0.06 0.07 0.08 0.07 0.06 0.05 0.05 0.06 0.07 0.08 0.09 0.09 0.07 0.05 0.05 0.05 0.05 0.07 0.09 0.09 0.09 0.12 0.16 0.18 0.22 0.31 0.40 0.43 0.43 0.43 0.43 0.43 0.46 0.46 0.44 0.44 0.50 0.56
0.10 0.08 0.07 0.06 0.05 0.06 0.07 0.07 0.08 0.09 0.07 0.06 0.07 0.07 0.08 0.08 0.08 0.07 0.07 0.06 0.05 0.05 0.06 0.08 0.10 0.11 0.12 0.15 0.19 0.21 0.25 0.30 0.39 0.44 0.45 0.46 0.50 0.50 0.50 0.52 0.53 0.50 0.48 0.53
0.10 0.10 0.09 0.08 0.08 0.08 0.08 0.07 0.08 0.08 0.08 0.07 0.08 0.09 0.10 0.10 0.09 0.08 0.08 0.07 0.06 0.06 0.06 0.07 0.11 0.13 0.14 0.18 0.22 0.24 0.29 0.34 0.40 0.46 0.48 0.49 0.55 0.55 0.54 0.54 0.53 0.53 0.50 0.52
0.08 0.09 0.09 0.09 0.10 0.11 0.10 0.07 0.07 0.09 0.09 0.09 0.10 0.12 0.12 0.12 0.11 0.11 0.09 0.08 0.08 0.08 0.08 0.09 0.14 0.14 0.16 0.20 0.29 0.32 0.38 0.42 0.46 0.46 0.46 0.53 0.56 0.54 0.55 0.56 0.57 0.56 0.54 0.55
0.09 0.09 0.09 0.11 0.11 0.12 0.11 0.10 0.09 0.10 0.11 0.11 0.12 0.13 0.14 0.14 0.14 0.13 0.13 0.12 0.11 0.12 0.10 0.12 0.14 0.15 0.19 0.26 0.37 0.43 0.45 0.47 0.51 0.51 0.50 0.54 0.58 0.59 0.59 0.60 0.62 0.61 0.59 0.59
0.11 0.11 0.11 0.12 0.11 0.11 0.12 0.13 0.13 0.13 0.13 0.13 0.15 0.17 0.17 0.17 0.16 0.16 0.15 0.15 0.14 0.15 0.14 0.15 0.16 0.22 0.30 0.39 0.45 0.44 0.45 0.51 0.56 0.59 0.60 0.61 0.63 0.63 0.63 0.64 0.66 0.68 0.68 0.67
0.13 0.13 0.14 0.14 0.12 0.11 0.12 0.12 0.14 0.15 0.15 0.16 0.17 0.19 0.20 0.20 0.19 0.18 0.18 0.17 0.17 0.21 0.21 0.19 0.22 0.33 0.40 0.44 0.41 0.43 0.46 0.52 0.59 0.64 0.66 0.66 0.69 0.72 0.70 0.70 0.74 0.74 0.74 0.73
0.16 0.17 0.17 0.16 0.15 0.14 0.12 0.12 0.14 0.15 0.17 0.18 0.20 0.21 0.22 0.23 0.23 0.23 0.23 0.20 0.21 0.26 0.26 0.25 0.32 0.39 0.43 0.41 0.39 0.43 0.49 0.55 0.62 0.69 0.72 0.73 0.74 0.78 0.80 0.79 0.80 0.80 0.79 0.78
0.19 0.18 0.17 0.16 0.16 0.15 0.15 0.15 0.15 0.16 0.17 0.17 0.19 0.21 0.23 0.23 0.22 0.22 0.25 0.26 0.28 0.30 0.30 0.33 0.38 0.41 0.43 0.42 0.44 0.49 0.57 0.65 0.72 0.78 0.80 0.81 0.80 0.81 0.85 0.87 0.88 0.84 0.82 0.81
0.22 0.21 0.19 0.18 0.18 0.19 0.18 0.17 0.16 0.16 0.17 0.17 0.18 0.20 0.23 0.26 0.28 0.28 0.28 0.31 0.34 0.35 0.36 0.38 0.41 0.44 0.44 0.46 0.53 0.60 0.68 0.76 0.87 0.93 0.92 0.90 0.86 0.87 0.88 0.91 0.92 0.89 0.86 0.83
0.26 0.26 0.24 0.23 0.24 0.24 0.23 0.22 0.21 0.20 0.20 0.21 0.22 0.23 0.25 0.29 0.31 0.32 0.32 0.35 0.38 0.39 0.39 0.42 0.45 0.48 0.52 0.57 0.62 0.68 0.72 0.75 0.81 0.88 0.89 0.90 0.89 0.89 0.91 0.94 0.93 0.91 0.88 0.85
0.28 0.27 0.25 0.24 0.25 0.26 0.27 0.28 0.29 0.29 0.29 0.30 0.31 0.31 0.31 0.33 0.35 0.35 0.36 0.39 0.42 0.43 0.43 0.46 0.49 0.53 0.58 0.65 0.69 0.72 0.75 0.77 0.82 0.90 0.94 0.94 0.92 0.94 0.95 0.95 0.95 0.92 0.90 0.87